This demonstration page uses our WeatherBlox Daily Observations layout. Learn more.

41.55636, -103.73856

Hourly Observations for May 17, 2018

Temp ( °F °C ) Dew Point ( °F °C ) Humidity (%) Winds ( mph kmh ) Pressure ( in mb ) Visibility ( mi km ) Precip ( " mm )
12:53 am 00:53 Clear 58 14.4 52 11.1 81 81 ESE 9 15 29.8 1009 10 16.09344 0 0
1:53 am 01:53 Clear 58 14.4 52 11.1 81 81 E 12 19 29.8 1009 10 16.09344 0 0
2:53 am 02:53 Clear 58 14.4 52 11.1 81 81 E 10 17 29.77 1008 10 16.09344 0 0
3:53 am 03:53 Clear 58 14.4 53 11.7 84 84 ESE 10 17 29.77 1008 10 16.09344 0 0
4:53 am 04:53 Clear 59 15 53 11.7 81 81 E 13 20 29.74 1007 10 16.09344 0 0
5:53 am 05:53 Sunny 61 16.1 55 12.8 81 81 E 8 13 29.74 1007 10 16.09344 0 0
6:53 am 06:53 Sunny 66 18.9 57 13.9 73 73 E 7 11 29.74 1007 10 16.09344 0 0
7:53 am 07:53 Sunny 71 21.7 58 14.4 63 63 SSE 14 22 29.74 1007 10 16.09344 0 0
8:53 am 08:53 Sunny 74 23.3 60 15.6 62 62 SSE 14 22 29.74 1007 10 16.09344 0 0
9:53 am 09:53 Sunny 77 25 61 16.1 58 58 ESE 18 30 29.71 1006 10 16.09344 0 0
10:53 am 10:53 Sunny 76 24.4 59 15 56 56 SE 12 19 29.71 1006 10 16.09344 0 0
11:53 am 11:53 Sunny 82 27.8 58 14.4 44 44 SE 17 28 29.68 1005 10 16.09344 0 0
12:53 pm 12:53 Mostly Sunny 84 28.9 57 13.9 40 40 SE 20 31 29.65 1004 10 16.09344 0 0
1:53 pm 13:53 Mostly Cloudy 85 29.4 59 15 42 42 SSE 21 33 29.62 1003 10 16.09344 0 0
2:53 pm 14:53 Mostly Cloudy 83 28.3 57 13.9 41 41 SSE 16 26 29.59 1002 10 16.09344 0 0
3:53 pm 15:53 Sunny 83 28.3 54 12.2 37 37 SSE 15 24 29.56 1001 10 16.09344 0 0
4:53 pm 16:53 Partly Cloudy with Nearby Thunderstorms 81 27.2 53 11.7 38 38 SE 15 24 29.53 1000 10 16.09344 0 0
5:11 pm 17:11 Sunny with Thunderstorms 80 26.7 53 11.7 39 39 SSE 12 19 29.41 996 10 16.09344 0 0
5:53 pm 17:53 Cloudy with Light Thunderstorms 77 25 44 6.7 31 31 N 5 7 29.59 1002 9 14.484096 0.001 0.001
6:30 pm 18:30 Windy with Storms Likely 66 19 54 12 64 64 E 21 33 29.53 1000 10 16.09344 0 0
6:53 pm 18:53 Mostly Cloudy with Light Thunderstorms 66 18.9 59 15 78 78 SSE 18 30 29.56 1001 6 9.656064 0.19 4.826
7:11 pm 19:11 Partly Cloudy with Nearby Thunderstorms 70 21 N/A N/A SE 22 35 29.47 998 10 16.09344 0.01 0.254
7:34 pm 19:34 Mostly Sunny 68 20 N/A N/A SE 21 33 29.5 999 10 16.09344 0.01 0.254
7:53 pm 19:53 Sunny 68 20 N/A N/A SE 15 24 29.56 1001 10 16.09344 0.01 0.254
8:53 pm 20:53 Clear 64 17.8 53 11.7 68 68 NNE 7 11 29.62 1003 10 16.09344 0 0
9:53 pm 21:53 Clear 62 16.7 51 10.6 67 67 ENE 18 30 29.65 1004 10 16.09344 0 0
10:22 pm 22:22 Clear with Nearby Thunderstorms 61 16 52 11 72 72 NE 9 15 29.65 1004 10 16.09344 0 0
10:43 pm 22:43 Mostly Cloudy with Thunderstorms 62 16.7 52 11.1 70 70 NNE 10 17 29.8 1009 10 16.09344 0 0
10:53 pm 22:53 Cloudy with Light Thunderstorms 60 15.6 54 12.2 80 80 NNE 18 30 29.77 1008 10 16.09344 0.001 0.001
11:05 pm 23:05 Cloudy with Nearby Thunderstorms 59 15 54 12.2 83 83 ENE 16 26 29.74 1007 10 16.09344 0.001 0.001
11:33 pm 23:33 Cloudy with Light Rain 58 14.4 54 12.2 87 87 NE 24 39 29.77 1008 10 16.09344 0.001 0.001
11:53 pm 23:53 Cloudy 58 14.4 54 12.2 87 87 ENE 26 43 29.71 1006 10 16.09344 0.001 0.001

Powered by AerisWeather